1496484001.06,50677,21.0,74164.5,24.73,-10.15,-1.09,0,*71
1496484002.26,50678,21.06,74164.8,24.75,-8.41,0.59,0,*59
1496484003.48,50679,21.06,74170.3,24.77,-8.71,0.25,0,*52
1496484004.7,50680,21.0,74164.5,24.79,-8.81,0.01,0,*63
1496484005.97,50681,21.0,74164.3,24.79,-9.83,-1.05,0,*49
1496484007.18,50682,21.06,74168.5,24.81,-9.83,-1.29,0,*43
1496484008.39,50683,21.0,74164.5,24.81,-9.93,-1.39,0,*42
1496484009.63,50684,21.0,74166.5,24.83,-8.81,-0.61,0,*79
1496484010.84,50685,21.06,74164.5,24.81,-10.09,-1.91,0,*7D
1496484012.1,50686,21.0,74164.5,24.79,-10.63,-2.35,0,*78
1496484013.3,50687,21.0,74166.3,24.77,-10.27,-2.19,0,*79
1496484014.52,50688,21.06,74168.5,24.77,-12.07,-4.17,0,*7E
1496484015.76,50689,21.0,74164.3,24.73,-10.89,-3.51,0,*7A
1496484016.98,50690,21.06,74170.5,24.73,-11.41,-3.91,0,*7B
1496484018.2,50691,21.06,74166.3,24.67,-11.33,-3.95,0,*7E
1496484019.43,50692,21.0,74166.0,24.63,-11.01,-4.01,0,*72
1496484020.63,50693,21.0,74166.8,24.63,-10.89,-3.91,0,*7C
1496484021.82,50694,21.06,74164.5,24.59,-8.97,-2.35,0,*4B
1496484023.04,50695,21.06,74170.3,24.61,-8.97,-2.43,0,*40
1496484024.26,50696,21.0,74164.8,24.59,-10.79,-4.25,0,*77
1496484025.52,50697,21.06,74166.8,24.55,-11.63,-5.19,0,*7E
1496484026.74,50698,21.06,74166.3,24.47,-13.87,-7.53,0,*76
1496484027.93,50699,21.06,74170.3,24.41,-15.15,-8.71,0,*73
1496484029.15,50700,21.0,74166.8,24.37,-14.79,-8.45,0,*7F
1496484030.4,50701,21.06,74170.3,24.29,-13.61,-7.57,0,*73
1496484031.64,50702,21.06,74168.5,24.23,-13.47,-7.91,0,*74
1496484032.85,50703,21.0,74164.0,24.17,-14.11,-8.37,0,*75
1496484034.1,50704,21.06,74170.8,24.11,-13.01,-7.43,0,*7E
1496484035.32,50705,21.06,74168.5,24.07,-12.97,-7.69,0,*7E
1496484036.55,50706,21.0,74164.8,23.99,-14.33,-9.15,0,*70
1496484037.77,50707,21.0,74166.0,23.93,-13.15,-8.21,0,*7E
1496484039.05,50708,21.06,74164.8,23.89,-12.75,-7.99,0,*71
1496484040.29,50709,21.06,74170.0,23.85,-12.61,-8.17,0,*70
1496484041.54,50710,21.06,74168.0,23.77,-12.15,-7.73,0,*7B
1496484042.76,50711,21.06,74170.8,23.75,-12.43,-8.21,0,*73
1496484044.02,50712,21.06,74168.3,23.67,-12.35,-7.95,0,*72
1496484045.27,50713,21.06,74168.8,23.63,-10.63,-6.47,0,*78
1496484046.49,50714,21.06,74166.3,23.57,-12.03,-7.99,0,*7E
1496484047.7,50715,21.0,74166.0,23.57,-11.01,-7.05,0,*7B
1496484048.98,50716,21.06,74164.0,23.51,-11.29,-7.57,0,*73
1496484050.23,50717,21.06,74168.5,23.49,-10.71,-7.01,0,*74
1496484051.5,50718,21.06,74168.0,23.45,-12.75,-9.15,0,*7A
1496484052.73,50719,21.06,74168.8,23.39,-11.45,-7.99,0,*7A
1496484054.01,50720,21.0,74164.8,23.33,-12.75,-9.45,0,*75
1496484055.29,50721,21.06,74170.8,23.29,-12.57,-9.49,0,*73
1496484056.51,50722,21.06,74168.3,23.23,-10.97,-7.99,0,*77
1496484057.74,50723,21.0,74166.5,23.19,-10.45,-7.57,0,*72
1496484058.99,50724,21.06,74170.0,23.15,-10.15,-7.43,0,*79
1496484060.21,50725,21.06,74164.0,23.11,-10.05,-7.23,0,*7B
1496484061.39,50726,21.06,74168.0,23.09,-10.05,-7.49,0,*7D
1496484062.62,50727,21.06,74168.0,23.05,-10.79,-8.37,0,*7D
1496484063.87,50728,21.06,74166.8,22.99,-10.75,-8.33,0,*7E
1496484065.06,50729,21.06,74168.5,22.97,-8.75,-6.59,0,*4A
1496484066.28,50730,21.06,74164.8,22.95,-8.63,-6.59,0,*47
1496484067.5,50731,21.06,74166.3,22.93,-8.93,-7.05,0,*47
1496484068.74,50732,21.06,74164.3,22.87,-10.53,-8.51,0,*7A
1496484069.94,50733,21.06,74164.3,22.85,-10.01,-8.21,0,*79
1496484071.15,50734,21.06,74164.3,22.79,-8.89,-7.01,0,*49
1496484072.37,50735,21.06,74164.8,22.77,-8.21,-6.55,0,*44
1496484073.62,50736,21.06,74166.8,22.75,-8.81,-7.01,0,*4F
1496484074.84,50737,21.06,74170.3,22.75,-8.51,-6.77,0,*43
1496484076.02,50738,21.06,74166.0,22.71,-8.29,-6.69,0,*48
1496484077.24,50739,21.0,74160.5,22.71,-7.65,-6.05,0,*44
1496484078.46,50740,21.06,74164.5,22.67,-6.97,-5.43,0,*40
1496484079.7,50741,21.06,74166.8,22.65,-8.67,-7.27,0,*42
1496484080.91,50742,21.06,74164.3,22.63,-7.69,-6.09,0,*4B
1496484082.16,50743,21.06,74166.8,22.61,-7.69,-6.43,0,*46
1496484083.38,50744,21.06,74166.8,22.59,-7.61,-6.55,0,*45
1496484084.6,50745,21.06,74168.5,22.59,-6.89,-5.89,0,*41
1496484085.84,50746,21.06,74164.8,22.57,-6.59,-5.65,0,*43
1496484087.09,50747,21.06,74170.0,22.57,-6.09,-5.15,0,*40
1496484088.34,50748,21.06,74166.8,22.57,-6.01,-5.11,0,*43
1496484089.58,50749,21.06,74166.8,22.57,-7.65,-6.69,0,*4D
1496484090.77,50750,21.06,74164.5,22.55,-6.73,-5.97,0,*43
1496484091.99,50751,21.06,74166.0,22.55,-7.77,-7.15,0,*4F
1496484093.21,50752,21.06,74166.5,22.51,-5.89,-5.55,0,*4D
1496484094.43,50753,21.06,74164.3,22.51,-6.05,-5.81,0,*42
1496484095.7,50754,21.06,74162.5,22.49,-5.23,-4.73,0,*47
1496484096.92,50755,21.06,74164.3,22.49,-4.65,-4.53,0,*47
1496484098.2,50756,21.06,74162.8,22.49,-5.15,-5.27,0,*40
1496484099.44,50757,21.06,74166.8,22.51,-5.15,-5.65,0,*4E
1496484100.69,50758,21.06,74166.5,22.49,-4.65,-5.23,0,*4C
1496484101.93,50759,21.06,74164.3,22.49,-4.99,-5.69,0,*40
1496484103.19,50760,21.06,74168.0,22.49,-4.89,-5.69,0,*4B
1496484104.38,50761,21.06,74164.5,22.47,-5.35,-6.39,0,*44
1496484105.61,50762,21.06,74166.0,22.47,-4.53,-5.61,0,*48
1496484106.83,50763,21.06,74166.8,22.47,-5.85,-7.53,0,*40
1496484108.03,50764,21.06,74168.0,22.43,-6.81,-8.37,0,*49
1496484109.24,50765,21.06,74166.8,22.41,-6.73,-8.67,0,*42
1496484110.49,50766,21.06,74164.0,22.37,-5.73,-7.69,0,*42
1496484111.71,50767,21.06,74166.0,22.37,-6.09,-8.25,0,*4A
1496484112.9,50768,21.06,74168.5,22.35,-6.81,-9.19,0,*49
1496484114.15,50769,21.06,74166.0,22.31,-9.37,-11.85,0,*72
1496484115.4,50770,21.06,74166.0,22.21,-8.29,-11.07,0,*7F
1496484116.61,50771,21.06,74166.8,22.17,-8.29,-11.33,0,*7C
1496484117.87,50772,21.06,74160.8,22.15,-7.43,-10.31,0,*7D
1496484119.12,50773,21.06,74166.0,22.11,-7.53,-10.63,0,*7E
1496484120.35,50774,21.06,74162.5,22.09,-7.57,-10.93,0,*7B
1496484121.57,50775,21.06,74166.5,22.05,-7.23,-10.63,0,*7A
1496484122.82,50776,21.06,74164.5,22.03,-8.33,-11.81,0,*7C
1496484124.04,50777,21.06,74166.0,21.97,-8.67,-12.53,0,*7E
1496484125.26,50778,21.0,74160.5,21.93,-7.49,-11.29,0,*78
1496484126.51,50779,21.06,74160.8,21.91,-6.19,-10.05,0,*70
1496484127.77,50780,21.06,74166.8,21.91,-6.73,-10.79,0,*71
1496484129.04,50781,21.06,74166.8,21.91,-7.35,-11.51,0,*78
1496484130.29,50782,21.06,74164.8,21.87,-7.57,-11.73,0,*78
1496484131.54,50783,21.06,74164.3,21.85,-8.81,-13.23,0,*78
1496484132.74,50784,21.06,74164.8,21.79,-9.71,-14.11,0,*74
1496484133.96,50785,21.06,74166.0,21.75,-8.29,-12.79,0,*7D
1496484135.21,50786,21.06,74164.8,21.73,-9.01,-13.83,0,*77
1496484136.46,50787,21.06,74164.3,21.69,-9.45,-14.19,0,*79
1496484137.68,50788,21.06,74168.0,21.65,-8.41,-13.15,0,*74
1496484138.94,50789,21.06,74166.8,21.63,-7.77,-12.53,0,*7A
1496484140.19,50790,21.06,74164.5,21.61,-7.91,-12.47,0,*7D
1496484141.42,50791,21.06,74164.3,21.61,-9.01,-13.73,0,*7D
1496484142.65,50792,21.06,74166.8,21.57,-7.83,-12.39,0,*70
1496484143.9,50793,21.06,74166.3,21.57,-7.99,-12.47,0,*73
1496484145.16,50794,21.06,74170.3,21.57,-7.83,-12.35,0,*7A
1496484146.36,50795,21.06,74166.8,21.53,-9.75,-14.37,0,*7C
1496484147.56,50796,21.06,74168.3,21.49,-10.45,-15.11,0,*4A
1496484148.8,50797,21.06,74170.5,21.47,-10.19,-14.69,0,*42
1496484150.07,50798,21.06,74166.8,21.47,-8.37,-12.79,0,*7F
1496484151.27,50799,21.06,74164.3,21.45,-6.73,-10.85,0,*73
1496484152.49,50800,21.06,74166.8,21.45,-5.73,-9.93,0,*40
1496484153.7,50801,21.06,74166.0,21.49,-5.73,-9.89,0,*46
1496484154.89,50802,21.06,74166.5,21.49,-4.53,-8.67,0,*47
1496484156.09,50803,21.06,74164.3,21.59,-1.63,-5.55,0,*4D
1496484157.34,50804,21.06,74168.3,21.63,-1.09,-5.03,0,*4C
1496484158.56,50805,21.06,74164.5,21.71,-1.79,-5.69,0,*45
1496484159.79,50806,21.06,74164.3,21.79,-1.21,-5.15,0,*48
1496484161.05,50807,21.06,74166.0,21.85,-1.33,-5.23,0,*4C
1496484162.23,50808,21.06,74164.3,21.93,-1.51,-5.47,0,*42
1496484163.42,50809,21.06,74166.0,21.97,-2.15,-5.97,0,*49
1496484164.67,50810,21.06,74166.5,22.03,-1.55,-5.27,0,*43
1496484165.88,50811,21.06,74166.0,22.11,-0.11,-3.83,0,*78
1496484167.11,50812,21.06,74166.5,22.15,0.37,-3.03,0,*5E
1496484168.31,50813,21.06,74164.5,22.27,0.09,-3.63,0,*65
1496484169.52,50814,21.06,74162.3,22.33,-0.69,-4.45,0,*7F
1496484170.75,50815,21.06,74162.0,22.41,-0.33,-4.01,0,*74
1496484171.96,50816,21.06,74166.8,22.47,-0.23,-3.75,0,*74
1496484173.16,50817,21.06,74166.8,22.55,0.63,-2.79,0,*52
1496484174.39,50818,21.06,74164.3,22.63,0.87,-2.59,0,*50
1496484175.63,50819,21.06,74164.5,22.73,-0.93,-4.49,0,*7F
1496484176.85,50820,21.06,74164.8,22.79,-0.23,-3.71,0,*78
1496484178.05,50821,21.06,74164.5,22.85,0.01,-3.51,0,*65
1496484179.27,50822,21.06,74166.0,22.93,-1.39,-4.99,0,*45
1496484180.54,50823,21.06,74166.5,22.95,-2.07,-5.81,0,*44
1496484181.74,50824,21.06,74166.3,23.03,-0.37,-3.87,0,*7C
1496484182.98,50825,21.06,74164.3,23.07,1.41,-2.03,0,*69
1496484184.17,50826,21.06,74164.5,23.19,1.75,-1.67,0,*63
1496484185.4,50827,21.06,74166.3,23.25,0.05,-3.71,0,*6E
1496484186.59,50828,21.06,74166.0,23.31,-0.53,-4.33,0,*7B
1496484187.84,50829,21.06,74164.3,23.37,-1.33,-5.15,0,*4E
1496484189.06,50830,21.06,74166.8,23.43,-1.39,-5.35,0,*4D
1496484190.28,50831,21.06,74164.3,23.47,-2.19,-6.19,0,*44
1496484191.47,50832,21.06,74168.5,23.49,-2.79,-6.77,0,*47
1496484192.68,50833,21.06,74162.5,23.55,-1.59,-5.55,0,*49
1496484193.93,50834,21.06,74168.5,23.55,-1.21,-5.27,0,*44
1496484195.12,50835,21.06,74164.3,23.65,-2.19,-6.55,0,*48
1496484196.33,50836,21.06,74164.5,23.67,-2.35,-6.73,0,*43
1496484197.55,50837,21.06,74164.0,23.69,-2.99,-7.61,0,*48
1496484198.77,50838,21.06,74166.3,23.71,-4.29,-9.01,0,*4B
1496484199.99,50839,21.06,74166.3,23.71,-6.39,-11.41,0,*74
1496484201.25,50840,21.06,74164.0,23.71,-6.63,-11.81,0,*79
1496484202.47,50841,21.06,74166.5,23.67,-7.15,-12.47,0,*76
1496484203.66,50842,21.06,74164.3,23.65,-6.69,-12.25,0,*79
1496484204.91,50843,21.06,74164.8,23.63,-5.27,-10.53,0,*74
1496484206.16,50844,21.06,74162.5,23.63,-5.55,-11.37,0,*75
1496484207.35,50845,21.06,74170.5,23.57,-6.43,-12.39,0,*7A
1496484208.56,50846,21.06,74170.0,23.57,-8.03,-14.11,0,*7F
1496484209.77,50847,21.06,74166.3,23.53,-8.71,-15.07,0,*79
1496484211.0,50848,21.06,74162.5,23.51,-10.15,-16.83,0,*40
1496484212.25,50849,21.06,74166.8,23.49,-9.45,-16.31,0,*7C
1496484213.47,50850,21.06,74168.3,23.41,-10.57,-17.49,0,*49
1496484214.7,50851,21.06,74164.5,23.39,-10.09,-17.07,0,*46
1496484215.94,50852,21.06,74166.0,23.31,-10.31,-17.45,0,*40
1496484217.17,50853,21.06,74166.8,23.27,-10.01,-17.07,0,*43
1496484218.4,50854,21.06,74166.5,23.23,-10.79,-18.69,0,*48
1496484219.65,50855,21.06,74164.8,23.19,-11.85,-19.27,0,*49
1496484220.85,50856,21.06,74162.5,23.09,-10.85,-18.21,0,*4D
1496484222.11,50857,21.06,74166.0,23.07,-10.89,-18.31,0,*4F
1496484223.31,50858,21.06,74166.0,23.01,-11.15,-18.49,0,*4D
1496484224.53,50859,21.06,74160.5,22.95,-10.49,-17.83,0,*41
1496484225.79,50860,21.06,74162.8,22.95,-10.63,-17.87,0,*47
1496484227.02,50861,21.06,74164.0,22.87,-10.93,-18.21,0,*49
1496484228.3,50862,21.06,74166.0,22.87,-11.37,-18.93,0,*4C
1496484229.53,50863,21.06,74166.8,22.83,-12.11,-19.71,0,*43
1496484230.81,50864,21.06,74162.8,22.77,-11.89,-19.41,0,*4E
1496484232.05,50865,21.06,74166.5,22.75,-9.83,-17.03,0,*76
1496484233.25,50866,21.06,74164.0,22.71,-9.27,-16.41,0,*78
1496484234.48,50867,21.06,74164.8,22.71,-9.93,-17.07,0,*75
1496484235.69,50868,21.06,74162.3,22.71,-8.37,-15.25,0,*77
1496484236.92,50869,21.06,74166.0,22.73,-8.59,-15.29,0,*70
1496484238.15,50870,21.06,74164.0,22.71,-7.57,-14.15,0,*75
1496484239.4,50871,21.06,74160.5,22.73,-8.25,-14.55,0,*78
1496484240.66,50872,21.06,74166.3,22.73,-8.55,-15.01,0,*7C
1496484241.86,50873,21.06,74160.5,22.75,-10.09,-16.55,0,*49
1496484243.08,50874,21.06,74160.8,22.75,-9.37,-15.67,0,*79
1496484244.31,50875,21.06,74166.5,22.77,-9.01,-15.07,0,*79
1496484245.57,50876,21.06,74164.8,22.77,-7.11,-12.79,0,*7B
1496484246.83,50877,21.06,74164.3,22.77,-7.11,-12.79,0,*7A
1496484248.1,50878,21.06,74168.0,22.81,-7.65,-13.29,0,*7B
1496484249.34,50879,21.06,74164.3,22.83,-6.63,-11.93,0,*7C
1496484250.59,50880,21.06,74162.3,22.87,-6.09,-11.33,0,*78
1496484251.82,50881,21.06,74164.3,22.93,-6.35,-11.55,0,*73
1496484253.07,50882,21.06,74164.3,22.97,-7.57,-12.65,0,*71
1496484254.31,50883,21.06,74164.3,22.97,-7.39,-12.07,0,*7C
1496484255.54,50884,21.06,74162.5,23.03,-5.39,-10.01,0,*71
1496484256.78,50885,21.06,74166.3,23.07,-6.85,-11.51,0,*74
1496484258.02,50886,21.06,74160.5,23.11,-7.49,-11.97,0,*7B
1496484259.25,50887,21.06,74160.5,23.17,-6.09,-10.23,0,*77
1496484260.53,50888,21.06,74164.0,23.25,-5.31,-9.37,0,*4C
1496484261.71,50889,21.06,74168.5,23.27,-4.99,-8.71,0,*4F
1496484262.93,50890,21.06,74160.5,23.33,-5.55,-9.27,0,*41
1496484264.15,50891,21.06,74166.0,23.39,-4.57,-7.99,0,*42
1496484265.4,50892,21.06,74162.3,23.45,-5.65,-8.89,0,*44
1496484266.65,50893,21.06,74164.8,23.51,-5.61,-8.81,0,*4C
1496484267.9,50894,21.06,74162.5,23.55,-4.57,-7.35,0,*4B
1496484269.11,50895,21.06,74162.8,23.61,-5.77,-8.63,0,*42
1496484270.3,50896,21.06,74166.5,23.65,-4.57,-7.23,0,*4D
1496484271.51,50897,21.06,74164.5,23.73,-4.45,-6.93,0,*42
1496484272.72,50898,21.06,74164.5,23.77,-6.19,-8.67,0,*47
1496484273.93,50899,21.06,74164.0,23.79,-6.73,-8.93,0,*4F
1496484275.16,50900,21.06,74160.0,23.83,-8.41,-10.67,0,*76
1496484276.35,50901,21.06,74162.5,23.87,-7.23,-9.31,0,*43
1496484277.59,50902,21.06,74164.3,23.87,-6.63,-8.51,0,*42
1496484278.8,50903,21.06,74162.0,23.93,-7.53,-9.31,0,*43
1496484280.04,50904,21.06,74164.0,23.95,-7.91,-9.49,0,*43
1496484281.23,50905,21.06,74166.0,23.99,-7.49,-8.93,0,*4D
1496484282.45,50906,21.06,74168.3,24.05,-5.35,-6.39,0,*4B
1496484283.66,50907,21.06,74164.5,24.07,-5.61,-6.69,0,*4C
1496484284.88,50908,21.06,74160.5,24.13,-5.81,-6.85,0,*4A
1496484286.1,50909,21.06,74166.0,24.17,-6.01,-6.93,0,*43
1496484287.32,50910,21.06,74162.3,24.17,-8.37,-9.11,0,*45
1496484288.54,50911,21.06,74164.0,24.21,-7.65,-8.41,0,*4D
1496484289.77,50912,21.06,74162.8,24.25,-8.11,-8.81,0,*4A
1496484291.0,50913,21.06,74160.8,24.23,-10.23,-10.85,0,*48
1496484292.24,50914,21.06,74162.3,24.23,-9.41,-9.75,0,*44
1496484293.45,50915,21.06,74162.3,24.25,-7.83,-7.99,0,*4F
1496484294.7,50916,21.06,74162.5,24.31,-6.81,-6.93,0,*41
1496484295.91,50917,21.06,74164.8,24.35,-6.01,-5.97,0,*4B
1496484297.14,50918,21.06,74164.5,24.39,-5.43,-5.31,0,*41
1496484298.4,50919,21.06,74164.5,24.43,-4.81,-4.69,0,*4E
1496484299.62,50920,21.06,74164.0,24.47,-5.61,-5.35,0,*47
1496484300.9,50921,21.06,74164.3,24.57,-5.19,-5.03,0,*4D
1496484302.11,50922,21.06,74162.8,24.59,-6.43,-6.19,0,*44
1496484303.35,50923,21.06,74166.3,24.63,-7.27,-7.05,0,*43
1496484304.59,50924,21.06,74160.0,24.65,-7.01,-6.69,0,*4D
1496484305.83,50925,21.06,74166.0,24.65,-7.01,-6.77,0,*43
1496484307.07,50926,21.06,74164.8,24.69,-7.05,-6.47,0,*4B
1496484308.28,50927,21.06,74160.0,24.75,-7.61,-7.15,0,*43
1496484309.48,50928,21.06,74164.5,24.77,-8.71,-8.25,0,*4C
1496484310.69,50929,21.06,74160.5,24.77,-10.53,-10.15,0,*4E
1496484311.94,50930,21.06,74160.8,24.73,-10.75,-10.31,0,*40
1496484313.2,50931,21.06,74164.5,24.73,-11.55,-11.41,0,*44
1496484314.44,50932,21.13,74166.5,24.65,-13.11,-12.65,0,*47
1496484315.68,50933,21.06,74162.3,24.63,-13.23,-12.71,0,*44
1496484316.93,50934,21.06,74162.8,24.61,-11.19,-10.71,0,*48
1496484318.16,50935,21.06,74160.5,24.59,-10.75,-10.05,0,*4A
1496484319.39,50936,21.06,74164.0,24.59,-11.23,-10.63,0,*4B
1496484320.61,50937,21.06,74162.3,24.61,-9.27,-8.45,0,*41
1496484321.83,50938,21.06,74164.5,24.61,-6.81,-6.01,0,*43
1496484323.1,50939,21.13,74166.8,24.61,-5.65,-4.93,0,*42
1496484324.38,50940,21.06,74160.8,24.69,-5.89,-5.23,0,*4C
1496484325.58,50941,21.06,74162.3,24.75,-5.19,-4.45,0,*48
1496484326.86,50942,21.06,74162.3,24.79,-5.65,-4.89,0,*4C
1496484328.07,50943,21.06,74162.3,24.83,-5.43,-4.61,0,*4A
1496484329.34,50944,21.06,74160.8,24.83,-5.73,-5.07,0,*4F
1496484330.61,50945,21.06,74160.8,24.87,-5.65,-4.89,0,*4A
1496484331.84,50946,21.06,74160.3,24.91,-4.69,-4.05,0,*47
1496484333.05,50947,21.06,74162.8,24.97,-4.85,-4.33,0,*47
1496484334.23,50948,21.06,74162.3,25.01,-4.99,-4.45,0,*4A
1496484335.42,50949,21.06,74160.8,25.05,-4.57,-4.17,0,*4A
1496484336.63,50950,21.06,74162.3,25.09,-4.93,-4.37,0,*44
1496484337.82,50951,21.06,74160.5,25.13,-4.53,-4.05,0,*43
1496484339.06,50952,21.06,74162.8,25.15,-3.63,-3.23,0,*41
1496484340.33,50953,21.06,74160.5,25.23,-2.51,-2.11,0,*45
1496484341.57,50954,21.13,74166.8,25.27,-2.67,-2.15,0,*47
1496484342.79,50955,21.06,74162.3,25.35,-2.27,-1.67,0,*47
1496484344.0,50956,21.13,74166.3,25.41,-1.79,-1.29,0,*45
1496484345.22,50957,21.06,74162.8,25.49,-1.67,-1.33,0,*48
1496484346.48,50958,21.06,74162.3,25.53,-1.43,-1.05,0,*4F
1496484347.73,50959,21.06,74160.8,25.57,-1.87,-1.71,0,*41
1496484348.97,50960,21.13,74164.5,25.65,-2.23,-1.91,0,*49
1496484350.21,50961,21.13,74164.0,25.71,-2.51,-2.11,0,*43
1496484351.43,50962,21.06,74160.8,25.75,-3.19,-3.03,0,*4B
1496484352.62,50963,21.13,74162.5,25.77,-5.47,-5.47,0,*43
1496484353.84,50964,21.06,74160.3,25.79,-6.01,-6.09,0,*42
1496484355.1,50965,21.06,74162.0,25.79,-5.73,-5.73,0,*4B
1496484356.32,50966,21.13,74164.0,25.79,-6.89,-6.81,0,*40
1496484357.53,50967,21.06,74162.3,25.79,-6.09,-6.13,0,*42
1496484358.73,50968,21.06,74160.0,25.77,-5.97,-6.01,0,*44
1496484359.97,50969,21.13,74160.0,25.77,-7.43,-7.73,0,*4A
1496484361.16,50970,21.06,74160.5,25.77,-8.37,-8.33,0,*45
1496484362.4,50971,21.06,74160.5,25.75,-8.11,-8.17,0,*44
1496484363.61,50972,21.13,74162.8,25.71,-10.27,-10.57,0,*42
1496484364.84,50973,21.06,74160.3,25.69,-8.51,-8.75,0,*4B
1496484366.09,50974,21.13,74162.8,25.65,-8.71,-9.15,0,*45
1496484367.34,50975,21.06,74160.5,25.59,-7.57,-8.07,0,*42
1496484368.54,50976,21.06,74158.3,25.59,-8.25,-9.01,0,*4C
1496484369.76,50977,21.06,74158.0,25.55,-7.73,-8.45,0,*4C
1496484370.97,50978,21.13,74160.8,25.55,-7.35,-8.17,0,*46
1496484372.17,50979,21.06,74158.5,25.55,-6.59,-7.53,0,*43
1496484373.38,50980,21.06,74160.5,25.51,-8.21,-9.53,0,*4E
1496484374.63,50981,21.06,74158.8,25.49,-7.61,-8.97,0,*44
1496484375.85,50982,21.13,74160.0,25.47,-7.27,-8.85,0,*48
1496484377.07,50983,21.06,74160.5,25.47,-6.43,-8.03,0,*44
1496484378.29,50984,21.06,74158.5,25.47,-7.15,-9.11,0,*43
1496484379.53,50985,21.13,74162.5,25.45,-6.01,-7.99,0,*4A
1496484380.72,50986,21.13,74160.3,25.43,-6.31,-8.55,0,*43
1496484381.92,50987,21.13,74162.0,25.43,-6.73,-8.89,0,*45
1496484383.14,50988,21.06,74158.8,25.41,-6.09,-8.55,0,*44
1496484384.35,50989,21.13,74162.0,25.37,-6.59,-9.49,0,*4D
1496484385.56,50990,21.13,74158.8,25.37,-6.73,-9.49,0,*4D
1496484386.78,50991,21.13,74160.3,25.37,-6.55,-9.61,0,*42
1496484388.0,50992,21.13,74162.0,25.33,-8.63,-12.15,0,*77
1496484389.25,50993,21.13,74162.0,25.29,-9.11,-12.83,0,*76
1496484390.48,50994,21.06,74162.5,25.25,-7.35,-11.19,0,*75
1496484391.7,50995,21.13,74162.0,25.25,-5.51,-9.41,0,*40
1496484392.95,50996,21.13,74162.0,25.25,-5.03,-9.53,0,*47
1496484394.16,50997,21.13,74162.8,25.25,-5.15,-9.31,0,*45
1496484395.38,50998,21.13,74162.8,25.25,-3.23,-7.57,0,*47
1496484396.6,50999,21.06,74158.8,25.27,-3.83,-8.33,0,*43
1496484397.85,51000,21.13,74162.0,25.27,-3.95,-8.81,0,*45
1496484399.09,51001,21.13,74162.3,25.31,-3.43,-8.29,0,*4A
1496484400.31,51002,21.13,74160.5,25.31,-3.87,-9.01,0,*4A
1496484401.53,51003,21.13,74164.3,25.31,-3.87,-9.05,0,*4F
1496484402.78,51004,21.06,74164.0,25.35,-3.95,-9.41,0,*4F
1496484404.0,51005,21.13,74160.3,25.35,-1.71,-7.11,0,*4D
1496484405.21,51006,21.06,74160.5,25.41,-0.29,-5.35,0,*75
1496484406.46,51007,21.13,74164.0,25.45,-1.71,-7.35,0,*4E
1496484407.68,51008,21.13,74162.5,25.49,-1.75,-7.23,0,*4E
1496484408.95,51009,21.13,74160.3,25.49,-1.39,-7.05,0,*43
1496484410.17,51010,21.13,74162.3,25.55,-2.03,-7.87,0,*46
1496484411.38,51011,21.13,74166.5,25.57,-2.39,-8.41,0,*49
1496484412.6,51012,21.13,74162.0,25.55,-3.31,-9.49,0,*48
1496484413.81,51013,21.13,74160.5,25.57,-1.51,-7.49,0,*41
1496484415.07,51014,21.06,74160.0,25.61,-1.35,-7.31,0,*4E
1496484416.28,51015,21.06,74160.5,25.67,-0.77,-6.63,0,*78
1496484417.51,51016,21.13,74162.0,25.73,0.51,-5.31,0,*53
1496484418.77,51017,21.13,74162.3,25.75,0.41,-5.65,0,*54
1496484419.96,51018,21.13,74162.8,25.79,0.01,-6.13,0,*61
1496484421.14,51019,21.13,74162.5,25.89,-0.15,-6.39,0,*7F
1496484422.33,51020,21.13,74162.0,25.89,-1.71,-8.25,0,*45
1496484423.54,51021,21.13,74162.3,25.91,-1.75,-8.25,0,*49
1496484424.73,51022,21.13,74160.3,25.93,-2.83,-9.23,0,*45
1496484425.95,51023,21.13,74162.5,25.93,-5.51,-12.75,0,*75
1496484427.2,51024,21.13,74164.5,25.91,-7.27,-14.65,0,*74
1496484428.47,51025,21.13,74164.3,25.87,-7.43,-14.93,0,*79
1496484429.73,51026,21.06,74158.0,25.83,-7.61,-15.15,0,*71
1496484431.01,51027,21.13,74160.8,25.79,-6.93,-14.47,0,*7F
1496484432.23,51028,21.13,74158.3,25.77,-7.69,-15.11,0,*78
1496484433.45,51029,21.13,74162.8,25.75,-6.73,-14.15,0,*74
1496484434.69,51030,21.13,74160.0,25.69,-7.69,-15.07,0,*79
1496484435.94,51031,21.06,74160.8,25.65,-7.83,-15.57,0,*75
1496484437.2,51032,21.13,74162.8,25.65,-7.65,-15.29,0,*77
1496484438.4,51033,21.13,74162.0,25.59,-9.01,-16.97,0,*73
1496484439.65,51034,21.13,74160.8,25.55,-9.37,-17.55,0,*72
1496484440.9,51035,21.13,74162.0,25.49,-8.41,-16.27,0,*7A
1496484442.11,51036,21.13,74162.3,25.47,-8.17,-15.99,0,*72
1496484443.36,51037,21.13,74160.8,25.43,-9.15,-17.17,0,*70
1496484444.62,51038,21.13,74166.5,25.41,-8.37,-16.13,0,*79
1496484445.81,51039,21.13,74160.5,25.33,-9.93,-18.11,0,*7E
1496484447.01,51040,21.13,74164.0,25.33,-9.71,-17.69,0,*7C
1496484448.24,51041,21.13,74160.0,25.29,-9.19,-17.03,0,*74
1496484449.49,51042,21.06,74160.0,25.25,-9.53,-17.41,0,*73
1496484450.71,51043,21.13,74160.5,25.21,-9.15,-16.97,0,*7E
1496484451.96,51044,21.13,74166.0,25.19,-9.11,-16.93,0,*72
1496484453.19,51045,21.13,74162.0,25.15,-8.71,-16.45,0,*73
1496484454.39,51046,21.13,74160.5,25.13,-8.75,-16.55,0,*73
1496484455.66,51047,21.13,74162.8,25.11,-8.51,-16.13,0,*74
1496484456.89,51048,21.13,74160.3,25.11,-8.21,-15.95,0,*71
1496484458.1,51049,21.13,74162.0,25.09,-8.85,-16.59,0,*74
1496484459.35,51050,21.13,74164.5,25.07,-11.01,-18.93,0,*4E
1496484460.61,51051,21.13,74162.8,25.03,-11.55,-19.51,0,*45
1496484461.86,51052,21.13,74162.0,24.99,-13.29,-21.17,0,*44
1496484463.11,51053,21.13,74164.5,24.93,-11.89,-19.23,0,*4B
1496484464.38,51054,21.13,74162.5,24.91,-10.75,-18.35,0,*4A
1496484465.64,51055,21.13,74162.8,24.87,-11.29,-19.03,0,*40
1496484466.86,51056,21.13,74160.3,24.81,-16.03,-24.41,0,*42
1496484468.1,51057,21.13,74158.5,24.75,-16.27,-24.11,0,*4B
1496484469.36,51058,21.13,74158.5,24.65,-15.43,-23.13,0,*41
1496484470.55,51059,21.13,74162.0,24.59,-14.65,-22.27,0,*4C
1496484471.79,51060,21.13,74160.0,24.55,-12.97,-20.35,0,*40
1496484473.07,51061,21.13,74162.8,24.53,-13.87,-21.33,0,*40
1496484474.31,51062,21.13,74162.0,24.43,-16.69,-24.35,0,*44
1496484475.55,51063,21.13,74162.5,24.37,-16.27,-23.95,0,*41
1496484476.78,51064,21.13,74160.3,24.31,-14.33,-21.63,0,*4C
1496484478.0,51065,21.13,74160.8,24.29,-11.89,-18.79,0,*41
1496484479.2,51066,21.13,74162.5,24.29,-9.19,-15.99,0,*71
1496484480.42,51067,21.13,74160.0,24.29,-9.67,-16.27,0,*7F
1496484481.63,51068,21.13,74156.3,24.31,-9.93,-16.45,0,*76
1496484482.84,51069,21.13,74160.0,24.31,-9.93,-16.45,0,*77
1496484484.07,51070,21.13,74158.0,24.31,-10.09,-16.51,0,*41
1496484485.32,51071,21.13,74156.3,24.31,-12.11,-18.69,0,*4E
1496484486.55,51072,21.13,74162.0,24.29,-11.19,-17.41,0,*4A
1496484487.81,51073,21.13,74162.5,24.29,-11.07,-17.11,0,*41
1496484489.09,51074,21.13,74158.0,24.23,-11.07,-17.03,0,*4F
1496484490.34,51075,21.13,74158.0,24.25,-11.59,-17.59,0,*4C
1496484491.59,51076,21.13,74158.8,24.23,-11.73,-17.69,0,*42
1496484492.85,51077,21.13,74160.3,24.19,-11.81,-17.83,0,*43
1496484494.07,51078,21.13,74162.0,24.19,-10.01,-15.67,0,*4D
1496484495.35,51079,21.13,74158.8,24.19,-11.67,-17.41,0,*4B
1496484496.58,51080,21.13,74158.5,24.19,-12.47,-18.21,0,*45
1496484497.86,51081,21.13,74160.8,24.15,-11.63,-17.17,0,*47
1496484499.12,51082,21.13,74162.0,24.15,-11.33,-16.75,0,*44
1496484500.35,51083,21.13,74158.0,24.11,-10.93,-16.17,0,*4E
1496484501.56,51084,21.13,74162.3,24.11,-12.47,-17.87,0,*4A
1496484502.81,51085,21.13,74160.0,24.09,-13.69,-18.93,0,*45
1496484504.04,51086,21.13,74162.8,24.07,-11.85,-16.89,0,*4D